COSMOS 2491 DEB, 44996

Orbit data source: Space-Track

COSMOS 2491 DEB, 44996 is space debris in LEO originally from a launch on Wed, 25 Dec 2013 UTC launched from the Plesetsk Missile And Space Complex (PKMTR). Debris objects in space refer to the collection of defunct objects orbiting the Earth. Examples of debris include non-operational satellites, rocket bodies, and fragments generated from explosions, collisions, or faulty payload assembly.

Loading next visibility...
Identifier
44996, 2013-076R
Orbit
LEO
Country
Flag of CISCIS
Related business
Manufacturer
TsNIIKhM
Mission
Spacecraft
Bus & Motor
Unknown
Mass
Unknown
Launch date (UTC)
2013-12-25 (12 years ago)
Launch vehicle
Unknown
Launch site
Plesetsk Missile And Space Complex (PKMTR)
Object type
Payload
Rocket body
Debris
Shape & HBR
Unknown shape, 0.1 m
Radar Cross Section
Small (<0.1 m²)

Expand to show TLE details & history
Last TLE update: 1 week ago

TLE from 1 week ago
0 COSMOS 2491 DEB
1 44996U 13076R   25279.41386464  .00000103  00000-0  66963-3 0  9997
2 44996  82.4836 327.0275 0010270 265.1099  94.8808 12.43294639260821
Epoch: 2025-10-06T09:55Z
TLE epoch observation values (Epoch: 2025-10-06T09:55:57.904Z)
Latitude
-0.00008°
Longitude
162.71876°
Altitude
1,496.064 km
Speed
7.116 km/s
True Right ascension
21h 48m 06s
True Declination
0° 00' 00"
Sunlit
Object was in full shadow at epoch
Visualization orbit readout
Latitude
Unknown
Longitude
Unknown
Altitude
Unknown
Speed
Unknown
Apparent Right ascension
Unknown
Apparent Declination
Unknown
Sunlit
N/A
Visualization observer readout
Local Sidereal Time
19:03:39
Azimuth
Unknown
Elevation
Unknown
Doppler factor
Unknown
Orbital elements
Apogee altitude
1,498.1 km
Perigee altitude
1,481.938 km
Semi-major axis
7,868.156 km
Eccentricity
0.00103
Inclination
82.4836°
RAAN
327.0275°
Arg. of periapsis
265.1099°
True anomaly
94.99805°
Mean anomaly
94.8808°
Eccentric anomaly
94.93942°
Mean motion
3.10981 °/min
Orbital period
115.76 mins
BSTAR
0.00066963
Loading maneuver chart data...
Computing Atmospheric mass density...
Loading historical data...
Loading historical data...
Loading historical data...
Loading historical data...
Loading historical data...
Loading historical data...
Loading historical data...

Documentation

Showing up to 5 results
|